Regional Weather Roundup
Issued by NWS

Home | Current Version | Previous Version | Text Only | Print | Product List | Glossary On
Versions: 1 2 3 4 5 6 7 8 9 10 11 12 13 14 15 16 17 18 19 20 21 22 23 24 25 26 27 28 29 30 31 32 33 34 35 36 37 38 39 40 41 42 43 44 45 46 47 48 49 50
357
ASUS43 KFSD 240010
RWRSD

WEATHER ROUNDUP FOR SOUTH DAKOTA
NATIONAL WEATHER SERVICE SIOUX FALLS SD
700 PM CDT SUN APR 23 2017

NOTE: "FAIR" INDICATES FEW OR NO CLOUDS BELOW 12,000 FEET WITH NO
SIGNIFICANT WEATHER AND/OR OBSTRUCTIONS TO VISIBILITY.


SDZ001>005-009-010-012>017-240100-
NORTHWEST AND NORTH CENTRAL SOUTH DAKOTA

CITY           SKY/WX    TMP DP  RH WIND       PRES   REMARKS
BUFFALO          N/A     52  39  61 E17       29.65F
FAITH            N/A     58  44  60 NE20      29.69F
MOBRIDGE       MOSUNNY   53  38  56 NE31G39   29.68R
$$

SDZ012>016-024>037-041>051-057-063-072>074-240100-
SOUTHWEST AND SOUTH CENTRAL SOUTH DAKOTA

CITY           SKY/WX    TMP DP  RH WIND       PRES   REMARKS
RAPID CTY ARPT SUNNY     68  40  35 NE12      29.65S
PIERRE         SUNNY     73  36  25 W9        29.62F
CUSTER         CLOUDY    65  25  22 SW7       29.71F
ELLSWORTH AFB  SUNNY     67  41  38 NE13      29.65F
PHILIP         SUNNY     77  39  25 CALM      29.61F
PINE RIDGE     CLOUDY    72  35  25 S10       29.64F
SPEARFISH      FAIR      59  41  51 E12G18    29.68F
WINNER         FAIR      73  34  23 S18       29.69F
$$

SDZ004>011-016>023-039-040-240100-
NORTHEAST SOUTH DAKOTA

CITY           SKY/WX    TMP DP  RH WIND       PRES   REMARKS
ABERDEEN       SUNNY     69  35  28 MISG      29.71F
WATERTOWN      SUNNY     67  31  26 S16G25    29.76F
BROOKINGS      SUNNY     69  31  24 SW14      29.79F
SISSETON         N/A     67  41  38 E13       29.76F
$$

SDZ017-020-022-023-036>040-048>070-240100-
SOUTHEAST SOUTH DAKOTA

CITY           SKY/WX    TMP DP  RH WIND       PRES   REMARKS
SIOUX FALLS    PTSUNNY   70  30  22 S17G25    29.80F
HURON          SUNNY     72  29  20 S15       29.71F
CHAMBERLAIN    SUNNY     74  32  21 SE21G28   29.69S
MITCHELL       SUNNY     73  27  18 S15G25    29.73F
YANKTON        CLOUDY    72  27  18 S16G31    29.78F
$$

ABBREVIATIONS USED IN REMARKS
   TC - TEMPERATURE IN CELSIUS
  WCI - WIND CHILL INDEX
   HX - HEAT INDEX
  VSB - VISIBILITY





USA.gov is the U.S. government's official web portal to all federal, state and local government web resources and services.